Year,Month,Day,Hour,Minute,Value (Times are PST for temperature in C)
2011,05,17,00,00,8.20
2011,05,17,00,01,8.30
2011,05,17,00,02,8.30
2011,05,17,00,03,8.30
2011,05,17,00,04,8.30
2011,05,17,00,05,8.30
2011,05,17,00,06,8.30
2011,05,17,00,07,8.20
2011,05,17,00,08,8.20
2011,05,17,00,09,8.20
2011,05,17,00,10,8.20
2011,05,17,00,11,8.20
2011,05,17,00,12,8.20
2011,05,17,00,13,8.20
2011,05,17,00,14,8.30
2011,05,17,00,15,8.30
2011,05,17,00,16,8.30
2011,05,17,00,17,8.30
2011,05,17,00,18,8.30
2011,05,17,00,19,8.30
2011,05,17,00,20,8.30
2011,05,17,00,21,8.20
2011,05,17,00,22,8.20
2011,05,17,00,23,8.20
2011,05,17,00,24,8.20
2011,05,17,00,25,8.20
2011,05,17,00,26,8.20
2011,05,17,00,27,8.20
2011,05,17,00,28,8.20
2011,05,17,00,29,8.20
2011,05,17,00,30,8.20
2011,05,17,00,31,8.20
2011,05,17,00,32,8.20
2011,05,17,00,33,8.20
2011,05,17,00,34,8.20
2011,05,17,00,35,8.20
2011,05,17,00,36,8.20
2011,05,17,00,37,8.20
2011,05,17,00,38,8.20
2011,05,17,00,39,8.20
2011,05,17,00,40,8.20
2011,05,17,00,41,8.20
2011,05,17,00,42,8.20
2011,05,17,00,43,8.20
2011,05,17,00,44,8.20
2011,05,17,00,45,8.20
2011,05,17,00,46,8.10
2011,05,17,00,47,8.10
2011,05,17,00,48,8.10
2011,05,17,00,49,8.10
2011,05,17,00,50,8.10
2011,05,17,00,51,8.00
2011,05,17,00,52,8.00
2011,05,17,00,53,8.00
2011,05,17,00,54,8.00
2011,05,17,00,55,8.00
2011,05,17,00,56,8.00
2011,05,17,00,57,8.00
2011,05,17,00,58,7.90
2011,05,17,00,59,8.00
2011,05,17,01,00,8.00
2011,05,17,01,01,8.00
2011,05,17,01,02,8.00
2011,05,17,01,03,8.00
2011,05,17,01,04,8.00
2011,05,17,01,05,7.90
2011,05,17,01,06,7.90
2011,05,17,01,07,7.90
2011,05,17,01,08,7.90
2011,05,17,01,09,7.90
2011,05,17,01,10,7.90
2011,05,17,01,11,7.90
2011,05,17,01,12,7.90
2011,05,17,01,13,7.90
2011,05,17,01,14,7.90
2011,05,17,01,15,7.90
2011,05,17,01,16,7.90
2011,05,17,01,17,7.90
2011,05,17,01,18,7.90
2011,05,17,01,19,7.90
2011,05,17,01,20,8.00
2011,05,17,01,21,8.00
2011,05,17,01,22,8.00
2011,05,17,01,23,8.00
2011,05,17,01,24,8.00
2011,05,17,01,25,8.00
2011,05,17,01,26,8.00
2011,05,17,01,27,8.00
2011,05,17,01,28,8.00
2011,05,17,01,29,8.00
2011,05,17,01,30,8.00
2011,05,17,01,31,8.00
2011,05,17,01,32,8.00
2011,05,17,01,33,8.00
2011,05,17,01,34,8.10
2011,05,17,01,35,8.10
2011,05,17,01,36,8.10
2011,05,17,01,37,8.00
2011,05,17,01,38,8.00
2011,05,17,01,39,8.00
2011,05,17,01,40,8.00
2011,05,17,01,41,8.00
2011,05,17,01,42,8.00
2011,05,17,01,43,8.00
2011,05,17,01,44,7.90
2011,05,17,01,45,7.90
2011,05,17,01,46,7.90
2011,05,17,01,47,7.90
2011,05,17,01,48,7.90
2011,05,17,01,49,7.80
2011,05,17,01,50,7.80
2011,05,17,01,51,7.80
2011,05,17,01,52,7.80
2011,05,17,01,53,7.80
2011,05,17,01,54,7.80
2011,05,17,01,55,7.80
2011,05,17,01,56,7.80
2011,05,17,01,57,7.80
2011,05,17,01,58,7.80
2011,05,17,01,59,7.70
2011,05,17,02,00,7.70
2011,05,17,02,01,7.70
2011,05,17,02,02,7.70
2011,05,17,02,03,7.70
2011,05,17,02,04,7.70
2011,05,17,02,05,7.60
2011,05,17,02,06,7.60
2011,05,17,02,07,7.60
2011,05,17,02,08,7.60
2011,05,17,02,09,7.60
2011,05,17,02,10,7.60
2011,05,17,02,11,7.60
2011,05,17,02,12,7.50
2011,05,17,02,13,7.50
2011,05,17,02,14,7.50
2011,05,17,02,15,7.50
2011,05,17,02,16,7.50
2011,05,17,02,17,7.50
2011,05,17,02,18,7.60
2011,05,17,02,19,7.60
2011,05,17,02,20,7.60
2011,05,17,02,21,7.60
2011,05,17,02,22,7.60
2011,05,17,02,23,7.60
2011,05,17,02,24,7.50
2011,05,17,02,25,7.50
2011,05,17,02,26,7.50
2011,05,17,02,27,7.50
2011,05,17,02,28,7.40
2011,05,17,02,29,7.40
2011,05,17,02,30,7.40
2011,05,17,02,31,7.30
2011,05,17,02,32,7.30
2011,05,17,02,33,7.30
2011,05,17,02,34,7.20
2011,05,17,02,35,7.20
2011,05,17,02,36,7.20
2011,05,17,02,37,7.20
2011,05,17,02,38,7.20
2011,05,17,02,39,7.20
2011,05,17,02,40,7.20
2011,05,17,02,41,7.20
2011,05,17,02,42,7.20
2011,05,17,02,43,7.20
2011,05,17,02,44,7.10
2011,05,17,02,45,7.10
2011,05,17,02,46,7.10
2011,05,17,02,47,7.10
2011,05,17,02,48,7.10
2011,05,17,02,49,7.10
2011,05,17,02,50,7.10
2011,05,17,02,51,7.10
2011,05,17,02,52,7.10
2011,05,17,02,53,7.10
2011,05,17,02,54,7.10
2011,05,17,02,55,7.10
2011,05,17,02,56,7.00
2011,05,17,02,57,7.00
2011,05,17,02,58,7.00
2011,05,17,02,59,7.00
2011,05,17,03,00,7.00
2011,05,17,03,01,7.00
2011,05,17,03,02,7.00
2011,05,17,03,06,7.00
2011,05,17,03,07,7.00
2011,05,17,03,08,7.00
2011,05,17,03,09,7.00
2011,05,17,03,10,7.00
2011,05,17,03,11,7.00
2011,05,17,03,12,7.00
2011,05,17,03,13,7.00
2011,05,17,03,14,6.90
2011,05,17,03,15,6.90
2011,05,17,03,16,6.90
2011,05,17,03,17,6.90
2011,05,17,03,18,6.90
2011,05,17,03,19,6.90
2011,05,17,03,20,6.90
2011,05,17,03,21,6.90
2011,05,17,03,22,6.90
2011,05,17,03,23,6.90
2011,05,17,03,24,6.90
2011,05,17,03,25,6.90
2011,05,17,03,26,6.90
2011,05,17,03,27,6.80
2011,05,17,03,28,6.80
2011,05,17,03,29,6.80
2011,05,17,03,30,6.80
2011,05,17,03,31,6.80
2011,05,17,03,32,6.70
2011,05,17,03,33,6.70
2011,05,17,03,34,6.60
2011,05,17,03,35,6.60
2011,05,17,03,36,6.50
2011,05,17,03,37,6.40
2011,05,17,03,38,6.30
2011,05,17,03,39,6.20
2011,05,17,03,40,6.20
2011,05,17,03,41,6.10
2011,05,17,03,42,6.10
2011,05,17,03,43,6.00
2011,05,17,03,44,5.90
2011,05,17,03,45,5.90
2011,05,17,03,46,5.80
2011,05,17,03,47,5.80
2011,05,17,03,48,5.70
2011,05,17,03,49,5.70
2011,05,17,03,50,5.70
2011,05,17,03,51,5.70
2011,05,17,03,52,5.70
2011,05,17,03,53,5.60
2011,05,17,03,54,5.60
2011,05,17,03,55,5.60
2011,05,17,03,56,5.60
2011,05,17,03,57,5.60
2011,05,17,03,58,5.50
2011,05,17,03,59,5.50
2011,05,17,04,00,5.40
2011,05,17,04,01,5.40
2011,05,17,04,02,5.40
2011,05,17,04,03,5.40
2011,05,17,04,04,5.30
2011,05,17,04,05,5.30
2011,05,17,04,06,5.40
2011,05,17,04,07,5.40
2011,05,17,04,08,5.40
2011,05,17,04,09,5.40
2011,05,17,04,10,5.40
2011,05,17,04,11,5.40
2011,05,17,04,12,5.40
2011,05,17,04,13,5.40
2011,05,17,04,14,5.40
2011,05,17,04,15,5.30
2011,05,17,04,16,5.30
2011,05,17,04,17,5.30
2011,05,17,04,18,5.30
2011,05,17,04,19,5.20
2011,05,17,04,20,5.20
2011,05,17,04,21,5.20
2011,05,17,04,22,5.20
2011,05,17,04,23,5.10
2011,05,17,04,24,5.10
2011,05,17,04,25,5.10
2011,05,17,04,26,5.10
2011,05,17,04,27,5.10
2011,05,17,04,28,5.10
2011,05,17,04,29,5.10
2011,05,17,04,30,5.20
2011,05,17,04,31,5.20
2011,05,17,04,32,5.20
2011,05,17,04,33,5.20
2011,05,17,04,34,5.20
2011,05,17,04,35,5.30
2011,05,17,04,36,5.30
2011,05,17,04,37,5.30
2011,05,17,04,38,5.40
2011,05,17,04,39,5.40
2011,05,17,04,40,5.40
2011,05,17,04,41,5.50
2011,05,17,04,42,5.60
2011,05,17,04,43,5.60
2011,05,17,04,44,5.60
2011,05,17,04,45,5.60
2011,05,17,04,46,5.60
2011,05,17,04,47,5.60
2011,05,17,04,48,5.50
2011,05,17,04,49,5.50
2011,05,17,04,50,5.40
2011,05,17,04,51,5.40
2011,05,17,04,52,5.30
2011,05,17,04,53,5.30
2011,05,17,04,54,5.20
2011,05,17,04,55,5.20
2011,05,17,04,56,5.20
2011,05,17,04,57,5.10
2011,05,17,04,58,5.10
2011,05,17,04,59,5.00
2011,05,17,05,00,5.00
2011,05,17,05,01,4.90
2011,05,17,05,02,4.90
2011,05,17,05,03,4.80
2011,05,17,05,04,4.80
2011,05,17,05,05,4.80
2011,05,17,05,06,4.70
2011,05,17,05,07,4.70
2011,05,17,05,08,4.70
2011,05,17,05,09,4.60
2011,05,17,05,10,4.60
2011,05,17,05,11,4.60
2011,05,17,05,12,4.60
2011,05,17,05,13,4.50
2011,05,17,05,14,4.50
2011,05,17,05,15,4.50
2011,05,17,05,16,4.50
2011,05,17,05,17,4.60
2011,05,17,05,18,4.60
2011,05,17,05,19,4.60
2011,05,17,05,20,4.60
2011,05,17,05,21,4.60
2011,05,17,05,22,4.60
2011,05,17,05,23,4.60
2011,05,17,05,24,4.60
2011,05,17,05,25,4.60
2011,05,17,05,26,4.60
2011,05,17,05,27,4.60
2011,05,17,05,28,4.60
2011,05,17,05,29,4.60
2011,05,17,05,30,4.50
2011,05,17,05,31,4.50
2011,05,17,05,32,4.50
2011,05,17,05,33,4.50
2011,05,17,05,34,4.50
2011,05,17,05,37,4.40
2011,05,17,05,38,4.40
2011,05,17,05,39,4.40
2011,05,17,05,40,4.40
2011,05,17,05,41,4.40
2011,05,17,05,42,4.40
2011,05,17,05,43,4.40
2011,05,17,05,44,4.40
2011,05,17,05,45,4.40
2011,05,17,05,46,4.40
2011,05,17,05,47,4.40
2011,05,17,05,48,4.40
2011,05,17,05,49,4.30
2011,05,17,05,50,4.30
2011,05,17,05,51,4.30
2011,05,17,05,52,4.30
2011,05,17,05,53,4.30
2011,05,17,05,54,4.30
2011,05,17,05,55,4.20
2011,05,17,05,56,4.20
2011,05,17,05,57,4.20
2011,05,17,05,58,4.20
2011,05,17,05,59,4.20
2011,05,17,06,00,4.20
2011,05,17,06,01,4.30
2011,05,17,06,02,4.30
2011,05,17,06,03,4.30
2011,05,17,06,04,4.30
2011,05,17,06,05,4.30
2011,05,17,06,06,4.30
2011,05,17,06,07,4.30
2011,05,17,06,08,4.30
2011,05,17,06,09,4.30
2011,05,17,06,10,4.40
2011,05,17,06,11,4.40
2011,05,17,06,12,4.40
2011,05,17,06,13,4.40
2011,05,17,06,14,4.40
2011,05,17,06,15,4.40
2011,05,17,06,16,4.40
2011,05,17,06,17,4.40
2011,05,17,06,18,4.40
2011,05,17,06,19,4.40
2011,05,17,06,20,4.40
2011,05,17,06,21,4.40
2011,05,17,06,22,4.40
2011,05,17,06,23,4.50
2011,05,17,06,24,4.50
2011,05,17,06,25,4.50
2011,05,17,06,26,4.50
2011,05,17,06,27,4.50
2011,05,17,06,28,4.50
2011,05,17,06,29,4.50
2011,05,17,06,30,4.50
2011,05,17,06,31,4.50
2011,05,17,06,32,4.50
2011,05,17,06,33,4.50
2011,05,17,06,34,4.50
2011,05,17,06,35,4.50
2011,05,17,06,36,4.50
2011,05,17,06,37,4.50
2011,05,17,06,38,4.50
2011,05,17,06,39,4.50
2011,05,17,06,40,4.50
2011,05,17,06,41,4.50
2011,05,17,06,42,4.60
2011,05,17,06,43,4.60
2011,05,17,06,44,4.70
2011,05,17,06,45,4.70
2011,05,17,06,46,4.80
2011,05,17,06,47,4.80
2011,05,17,06,48,4.90
2011,05,17,06,49,4.90
2011,05,17,06,50,4.90
2011,05,17,06,51,5.00
2011,05,17,06,52,5.10
2011,05,17,06,53,5.10
2011,05,17,06,54,5.10
2011,05,17,06,55,5.10
2011,05,17,06,56,5.20
2011,05,17,06,57,5.20
2011,05,17,06,58,5.20
2011,05,17,06,59,5.30
2011,05,17,07,00,5.30
2011,05,17,07,01,5.30
2011,05,17,07,02,5.30
2011,05,17,07,03,5.30
2011,05,17,07,04,5.40
2011,05,17,07,05,5.40
2011,05,17,07,06,5.40
2011,05,17,07,07,5.40
2011,05,17,07,08,5.50
2011,05,17,07,09,5.50
2011,05,17,07,10,5.60
2011,05,17,07,11,5.60
2011,05,17,07,12,5.70
2011,05,17,07,13,5.70
2011,05,17,07,14,5.70
2011,05,17,07,15,5.80
2011,05,17,07,16,5.80
2011,05,17,07,17,5.90
2011,05,17,07,18,5.90
2011,05,17,07,19,6.00
2011,05,17,07,20,6.10
2011,05,17,07,21,6.20
2011,05,17,07,22,6.20
2011,05,17,07,23,6.20
2011,05,17,07,24,6.30
2011,05,17,07,25,6.30
2011,05,17,07,26,6.30
2011,05,17,07,27,6.40
2011,05,17,07,28,6.40
2011,05,17,07,29,6.50
2011,05,17,07,30,6.50
2011,05,17,07,31,6.60
2011,05,17,07,32,6.60
2011,05,17,07,33,6.70
2011,05,17,07,34,6.70
2011,05,17,07,35,6.80
2011,05,17,07,36,6.80
2011,05,17,07,37,6.90
2011,05,17,07,38,7.00
2011,05,17,07,39,7.10
2011,05,17,07,40,7.30
2011,05,17,07,41,7.50
2011,05,17,07,42,7.70
2011,05,17,07,43,7.80
2011,05,17,07,44,8.00
2011,05,17,07,45,8.10
2011,05,17,07,46,8.20
2011,05,17,07,47,8.30
2011,05,17,07,48,8.40
2011,05,17,07,49,8.40
2011,05,17,07,50,8.50
2011,05,17,07,51,8.60
2011,05,17,07,52,8.60
2011,05,17,07,53,8.60
2011,05,17,07,54,8.70
2011,05,17,07,55,8.70
2011,05,17,07,56,8.70
2011,05,17,07,57,8.70
2011,05,17,07,58,8.70
2011,05,17,07,59,8.80
2011,05,17,08,00,8.80
2011,05,17,08,01,8.80
2011,05,17,08,02,8.80
2011,05,17,08,03,8.80
2011,05,17,08,04,8.80
2011,05,17,08,05,8.80
2011,05,17,08,06,8.80
2011,05,17,08,07,8.80
2011,05,17,08,08,8.80
2011,05,17,08,09,8.80
2011,05,17,08,10,8.90
2011,05,17,08,11,8.90
2011,05,17,08,12,8.80
2011,05,17,08,13,8.80
2011,05,17,08,14,8.80
2011,05,17,08,16,8.80
2011,05,17,08,17,8.80
2011,05,17,08,18,8.80
2011,05,17,08,19,8.80
2011,05,17,08,20,8.80
2011,05,17,08,21,8.80
2011,05,17,08,22,8.80
2011,05,17,08,23,8.90
2011,05,17,08,24,8.90
2011,05,17,08,25,8.90
2011,05,17,08,26,8.90
2011,05,17,08,27,8.90
2011,05,17,08,28,8.90
2011,05,17,08,29,8.90
2011,05,17,08,30,8.90
2011,05,17,08,31,8.90
2011,05,17,08,32,8.90
2011,05,17,08,33,8.90
2011,05,17,08,34,8.90
2011,05,17,08,35,8.90
2011,05,17,08,36,8.80
2011,05,17,08,37,8.80
2011,05,17,08,38,8.90
2011,05,17,08,39,8.90
2011,05,17,08,40,8.90
2011,05,17,08,41,8.90
2011,05,17,08,42,8.90
2011,05,17,08,43,9.00
2011,05,17,08,44,9.00
2011,05,17,08,45,9.00
2011,05,17,08,46,9.00
2011,05,17,08,47,9.00
2011,05,17,08,48,9.00
2011,05,17,08,49,9.00
2011,05,17,08,50,9.00
2011,05,17,08,51,9.10
2011,05,17,08,52,9.20
2011,05,17,08,53,9.30
2011,05,17,08,54,9.40
2011,05,17,08,55,9.50
2011,05,17,08,56,9.50
2011,05,17,08,57,9.60
2011,05,17,08,58,9.60
2011,05,17,08,59,9.60
2011,05,17,09,00,9.60
2011,05,17,09,01,9.50
2011,05,17,09,02,9.40
2011,05,17,09,03,9.40
2011,05,17,09,04,9.40
2011,05,17,09,05,9.40
2011,05,17,09,06,9.50
2011,05,17,09,07,9.50
2011,05,17,09,08,9.60
2011,05,17,09,09,9.60
2011,05,17,09,10,9.60
2011,05,17,09,11,9.70
2011,05,17,09,12,9.70
2011,05,17,09,13,9.70
2011,05,17,09,14,9.60
2011,05,17,09,15,9.60
2011,05,17,09,16,9.60
2011,05,17,09,17,9.60
2011,05,17,09,18,9.60
2011,05,17,09,19,9.70
2011,05,17,09,20,9.70
2011,05,17,09,21,9.70
2011,05,17,09,22,9.70
2011,05,17,09,23,9.70
2011,05,17,09,24,9.70
2011,05,17,09,25,9.70
2011,05,17,09,26,9.60
2011,05,17,09,27,9.70
2011,05,17,09,28,9.70
2011,05,17,09,29,9.80
2011,05,17,09,30,9.80
2011,05,17,09,31,9.90
2011,05,17,09,32,9.90
2011,05,17,09,33,10.00
2011,05,17,09,34,9.90
2011,05,17,09,35,9.90
2011,05,17,09,36,9.80
2011,05,17,09,37,9.80
2011,05,17,09,38,9.80
2011,05,17,09,39,9.70
2011,05,17,09,40,9.70
2011,05,17,09,41,9.70
2011,05,17,09,42,9.60
2011,05,17,09,43,9.60
2011,05,17,09,44,9.50
2011,05,17,09,45,9.50
2011,05,17,09,46,9.60
2011,05,17,09,47,9.60
2011,05,17,09,48,9.60
2011,05,17,09,49,9.60
2011,05,17,09,50,9.60
2011,05,17,09,51,9.60
2011,05,17,09,52,9.60
2011,05,17,09,53,9.70
2011,05,17,09,54,9.80
2011,05,17,09,55,9.80
2011,05,17,09,56,9.90
2011,05,17,09,57,10.00
2011,05,17,09,58,10.10
2011,05,17,09,59,10.20
2011,05,17,10,00,10.20
2011,05,17,10,01,10.30
2011,05,17,10,02,10.30
2011,05,17,10,03,10.30
2011,05,17,10,04,10.30
2011,05,17,10,05,10.30
2011,05,17,10,06,10.30
2011,05,17,10,07,10.30
2011,05,17,10,08,10.30
2011,05,17,10,09,10.30
2011,05,17,10,10,10.30
2011,05,17,10,11,10.30
2011,05,17,10,12,10.20
2011,05,17,10,13,10.20
2011,05,17,10,14,10.10
2011,05,17,10,15,10.10
2011,05,17,10,16,10.00
2011,05,17,10,17,10.00
2011,05,17,10,18,10.00
2011,05,17,10,19,10.00
2011,05,17,10,20,10.00
2011,05,17,10,21,9.90
2011,05,17,10,22,9.90
2011,05,17,10,23,9.90
2011,05,17,10,24,9.90
2011,05,17,10,25,9.90
2011,05,17,10,26,10.00
2011,05,17,10,27,10.10
2011,05,17,10,28,10.20
2011,05,17,10,29,10.20
2011,05,17,10,30,10.20
2011,05,17,10,31,10.10
2011,05,17,10,32,10.00
2011,05,17,10,33,10.00
2011,05,17,10,34,10.10
2011,05,17,10,35,10.00
2011,05,17,10,36,10.00
2011,05,17,10,37,9.90
2011,05,17,10,38,10.00
2011,05,17,10,39,10.10
2011,05,17,10,40,10.10
2011,05,17,10,41,10.20
2011,05,17,10,42,10.30
2011,05,17,10,43,10.40
2011,05,17,10,44,10.40
2011,05,17,10,45,10.40
2011,05,17,10,46,10.40
2011,05,17,10,47,10.40
2011,05,17,10,48,10.50
2011,05,17,10,49,10.50
2011,05,17,10,50,10.50
2011,05,17,10,51,10.60
2011,05,17,10,52,10.50
2011,05,17,10,53,10.30
2011,05,17,10,54,10.30
2011,05,17,10,55,10.20
2011,05,17,10,56,10.30
2011,05,17,10,57,10.30
2011,05,17,10,58,10.40
2011,05,17,10,59,10.50
2011,05,17,11,00,10.60
2011,05,17,11,01,10.60
2011,05,17,11,02,10.60
2011,05,17,11,03,10.50
2011,05,17,11,04,10.40
2011,05,17,11,05,10.40
2011,05,17,11,06,10.40
2011,05,17,11,07,10.50
2011,05,17,11,08,10.50
2011,05,17,11,09,10.50
2011,05,17,11,10,10.60
2011,05,17,11,11,10.60
2011,05,17,11,12,10.60
2011,05,17,11,13,10.50
2011,05,17,11,14,10.50
2011,05,17,11,15,10.50
2011,05,17,11,16,10.50
2011,05,17,11,17,10.50
2011,05,17,11,18,10.60
2011,05,17,11,19,10.60
2011,05,17,11,20,10.60
2011,05,17,11,21,10.60
2011,05,17,11,22,10.70
2011,05,17,11,23,10.80
2011,05,17,11,24,10.70
2011,05,17,11,25,10.60
2011,05,17,11,26,10.60
2011,05,17,11,27,10.60
2011,05,17,11,28,10.60
2011,05,17,11,29,10.60
2011,05,17,11,30,10.70
2011,05,17,11,31,10.80
2011,05,17,11,32,10.80
2011,05,17,11,33,10.80
2011,05,17,11,34,10.80
2011,05,17,11,35,10.80
2011,05,17,11,36,10.80
2011,05,17,11,37,10.80
2011,05,17,11,38,10.80
2011,05,17,11,39,10.70
2011,05,17,11,40,10.80
2011,05,17,11,41,10.80
2011,05,17,11,42,10.80
2011,05,17,11,43,10.70
2011,05,17,11,44,10.70
2011,05,17,11,45,10.60
2011,05,17,11,46,10.70
2011,05,17,11,47,10.80
2011,05,17,11,48,10.80
2011,05,17,11,49,10.90
2011,05,17,11,50,11.00
2011,05,17,11,51,11.00
2011,05,17,11,52,11.00
2011,05,17,11,53,10.90
2011,05,17,11,54,11.00
2011,05,17,11,55,11.00
2011,05,17,11,56,10.90
2011,05,17,11,57,10.80
2011,05,17,11,58,10.70
2011,05,17,11,59,10.70
2011,05,17,12,00,10.80
2011,05,17,12,01,10.90
2011,05,17,12,02,10.90
2011,05,17,12,03,10.90
2011,05,17,12,04,11.00
2011,05,17,12,05,11.00
2011,05,17,12,06,10.90
2011,05,17,12,07,10.90
2011,05,17,12,08,10.90
2011,05,17,12,09,10.80
2011,05,17,12,10,10.70
2011,05,17,12,11,10.70
2011,05,17,12,12,10.70
2011,05,17,12,13,10.70
2011,05,17,12,14,10.80
2011,05,17,12,15,10.90
2011,05,17,12,16,11.00
2011,05,17,12,17,11.10
2011,05,17,12,18,11.20
2011,05,17,12,19,11.20
2011,05,17,12,20,11.30
2011,05,17,12,21,11.40
2011,05,17,12,22,11.40
2011,05,17,12,23,11.30
2011,05,17,12,24,11.30
2011,05,17,12,25,11.30
2011,05,17,12,26,11.30
2011,05,17,12,27,11.30
2011,05,17,12,28,11.40
2011,05,17,12,29,11.40
2011,05,17,12,30,11.40
2011,05,17,12,31,11.50
2011,05,17,12,32,11.60
2011,05,17,12,33,11.60
2011,05,17,12,34,11.50
2011,05,17,12,35,11.60
2011,05,17,12,36,11.70
2011,05,17,12,37,11.80
2011,05,17,12,38,11.80
2011,05,17,12,39,11.90
2011,05,17,12,40,11.90
2011,05,17,12,41,11.90
2011,05,17,12,42,12.00
2011,05,17,12,43,12.00
2011,05,17,12,44,11.90
2011,05,17,12,45,11.80
2011,05,17,12,46,11.80
2011,05,17,12,47,11.80
2011,05,17,12,48,11.80
2011,05,17,12,49,11.90
2011,05,17,12,50,12.00
2011,05,17,12,51,12.00
2011,05,17,12,52,11.90
2011,05,17,12,53,11.90
2011,05,17,12,54,11.90
2011,05,17,12,55,11.80
2011,05,17,12,56,11.80
2011,05,17,12,57,11.80
2011,05,17,12,58,11.80
2011,05,17,12,59,11.70
2011,05,17,13,00,11.70
2011,05,17,13,01,11.70
2011,05,17,13,02,11.70
2011,05,17,13,03,11.70
2011,05,17,13,04,11.70
2011,05,17,13,05,11.70
2011,05,17,13,06,11.70
2011,05,17,13,07,11.80
2011,05,17,13,08,12.00
2011,05,17,13,09,12.00
2011,05,17,13,10,12.00
2011,05,17,13,11,11.90
2011,05,17,13,12,11.80
2011,05,17,13,13,11.90
2011,05,17,13,14,11.90
2011,05,17,13,15,12.00
2011,05,17,13,16,12.00
2011,05,17,13,17,12.20
2011,05,17,13,18,12.20
2011,05,17,13,19,12.20
2011,05,17,13,20,12.30
2011,05,17,13,21,12.20
2011,05,17,13,22,12.10
2011,05,17,13,23,12.10
2011,05,17,13,24,12.00
2011,05,17,13,25,12.00
2011,05,17,13,26,12.00
2011,05,17,13,27,12.00
2011,05,17,13,28,12.10
2011,05,17,13,29,12.10
2011,05,17,13,30,12.10
2011,05,17,13,31,12.20
2011,05,17,13,32,12.10
2011,05,17,13,33,12.00
2011,05,17,13,34,12.00
2011,05,17,13,35,12.00
2011,05,17,13,36,12.10
2011,05,17,13,37,12.00
2011,05,17,13,38,11.90
2011,05,17,13,39,11.90
2011,05,17,13,40,11.80
2011,05,17,13,41,11.90
2011,05,17,13,42,12.10
2011,05,17,13,43,12.20
2011,05,17,13,44,12.10
2011,05,17,13,45,12.00
2011,05,17,13,46,12.00
2011,05,17,13,47,11.90
2011,05,17,13,48,11.80
2011,05,17,13,49,11.80
2011,05,17,13,50,11.90
2011,05,17,13,51,12.00
2011,05,17,13,52,12.00
2011,05,17,13,53,12.10
2011,05,17,13,54,12.20
2011,05,17,13,55,12.10
2011,05,17,13,56,12.00
2011,05,17,13,57,12.10
2011,05,17,13,58,12.20
2011,05,17,13,59,12.20
2011,05,17,14,00,12.20
2011,05,17,14,01,12.20
2011,05,17,14,02,12.30
2011,05,17,14,03,12.30
2011,05,17,14,04,12.30
2011,05,17,14,05,12.30
2011,05,17,14,06,12.30
2011,05,17,14,07,12.40
2011,05,17,14,08,12.50
2011,05,17,14,09,12.40
2011,05,17,14,10,12.40
2011,05,17,14,11,12.40
2011,05,17,14,12,12.30
2011,05,17,14,13,12.30
2011,05,17,14,14,12.30
2011,05,17,14,15,12.30
2011,05,17,14,16,12.20
2011,05,17,14,17,12.20
2011,05,17,14,18,12.20
2011,05,17,14,19,12.20
2011,05,17,14,20,12.10
2011,05,17,14,21,12.10
2011,05,17,14,22,12.10
2011,05,17,14,23,12.10
2011,05,17,14,24,12.10
2011,05,17,14,25,12.20
2011,05,17,14,26,12.30
2011,05,17,14,27,12.40
2011,05,17,14,28,12.50
2011,05,17,14,29,12.50
2011,05,17,14,30,12.50
2011,05,17,14,31,12.50
2011,05,17,14,32,12.40
2011,05,17,14,33,12.40
2011,05,17,14,34,12.50
2011,05,17,14,35,12.60
2011,05,17,14,36,12.80
2011,05,17,14,37,12.70
2011,05,17,14,38,12.70
2011,05,17,14,39,12.60
2011,05,17,14,40,12.60
2011,05,17,14,41,12.60
2011,05,17,14,42,12.60
2011,05,17,14,43,12.50
2011,05,17,14,44,12.40
2011,05,17,14,45,12.40
2011,05,17,14,46,12.30
2011,05,17,14,47,12.30
2011,05,17,14,48,12.40
2011,05,17,14,49,12.60
2011,05,17,14,50,12.70
2011,05,17,14,51,12.80
2011,05,17,14,52,12.80
2011,05,17,14,53,12.80
2011,05,17,14,54,12.80
2011,05,17,14,55,12.90
2011,05,17,14,56,12.90
2011,05,17,14,57,12.90
2011,05,17,14,58,12.70
2011,05,17,14,59,12.70
2011,05,17,15,00,12.70
2011,05,17,15,01,12.70
2011,05,17,15,02,12.70
2011,05,17,15,05,12.70
2011,05,17,15,06,12.80
2011,05,17,15,07,12.90
2011,05,17,15,08,12.90
2011,05,17,15,09,12.90
2011,05,17,15,10,12.80
2011,05,17,15,11,12.70
2011,05,17,15,12,12.80
2011,05,17,15,13,12.80
2011,05,17,15,14,12.80
2011,05,17,15,15,12.90
2011,05,17,15,16,13.00
2011,05,17,15,17,13.20
2011,05,17,15,18,13.30
2011,05,17,15,19,13.40
2011,05,17,15,20,13.40
2011,05,17,15,21,13.40
2011,05,17,15,22,13.50
2011,05,17,15,23,13.60
2011,05,17,15,24,13.60
2011,05,17,15,25,13.70
2011,05,17,15,26,13.70
2011,05,17,15,27,13.70
2011,05,17,15,28,13.60
2011,05,17,15,29,13.50
2011,05,17,15,30,13.40
2011,05,17,15,31,13.30
2011,05,17,15,32,13.20
2011,05,17,15,33,13.10
2011,05,17,15,34,13.10
2011,05,17,15,35,13.20
2011,05,17,15,36,13.20
2011,05,17,15,37,13.20
2011,05,17,15,38,13.40
2011,05,17,15,39,13.50
2011,05,17,15,40,13.60
2011,05,17,15,41,13.70
2011,05,17,15,42,13.70
2011,05,17,15,43,13.80
2011,05,17,15,44,13.80
2011,05,17,15,45,13.80
2011,05,17,15,46,13.80
2011,05,17,15,47,13.80
2011,05,17,15,48,13.90
2011,05,17,15,49,13.90
2011,05,17,15,50,14.00
2011,05,17,15,51,14.00
2011,05,17,15,52,14.10
2011,05,17,15,53,14.20
2011,05,17,15,54,14.30
2011,05,17,15,55,14.40
2011,05,17,15,56,14.30
2011,05,17,15,57,14.10
2011,05,17,15,58,14.00
2011,05,17,15,59,13.90
2011,05,17,16,00,13.90
2011,05,17,16,01,13.90
2011,05,17,16,02,13.90
2011,05,17,16,03,13.90
2011,05,17,16,04,13.90
2011,05,17,16,05,14.00
2011,05,17,16,06,14.00
2011,05,17,16,07,14.00
2011,05,17,16,08,13.90
2011,05,17,16,09,13.90
2011,05,17,16,10,13.90
2011,05,17,16,11,14.00
2011,05,17,16,12,14.00
2011,05,17,16,13,14.10
2011,05,17,16,14,14.10
2011,05,17,16,15,14.20
2011,05,17,16,16,14.20
2011,05,17,16,17,14.20
2011,05,17,16,18,14.10
2011,05,17,16,19,14.10
2011,05,17,16,20,14.10
2011,05,17,16,21,14.10
2011,05,17,16,22,14.10
2011,05,17,16,23,14.10
2011,05,17,16,24,14.10
2011,05,17,16,25,14.20
2011,05,17,16,26,14.20
2011,05,17,16,27,14.30
2011,05,17,16,28,14.30
2011,05,17,16,29,14.30
2011,05,17,16,30,14.30
2011,05,17,16,31,14.40
2011,05,17,16,32,14.30
2011,05,17,16,33,14.30
2011,05,17,16,34,14.30
2011,05,17,16,35,14.20
2011,05,17,16,36,14.20
2011,05,17,16,37,14.10
2011,05,17,16,38,14.20
2011,05,17,16,39,14.30
2011,05,17,16,40,14.30
2011,05,17,16,41,14.40
2011,05,17,16,42,14.40
2011,05,17,16,43,14.50
2011,05,17,16,44,14.50
2011,05,17,16,45,14.60
2011,05,17,16,46,14.60
2011,05,17,16,47,14.60
2011,05,17,16,48,14.60
2011,05,17,16,49,14.50
2011,05,17,16,50,14.50
2011,05,17,16,51,14.50
2011,05,17,16,52,14.50
2011,05,17,16,53,14.60
2011,05,17,16,54,14.60
2011,05,17,16,55,14.60
2011,05,17,16,56,14.50
2011,05,17,16,57,14.50
2011,05,17,16,58,14.40
2011,05,17,16,59,14.50
2011,05,17,17,00,14.50
2011,05,17,17,01,14.50
2011,05,17,17,02,14.50
2011,05,17,17,03,14.50
2011,05,17,17,04,14.40
2011,05,17,17,05,14.40
2011,05,17,17,06,14.50
2011,05,17,17,07,14.60
2011,05,17,17,08,14.60
2011,05,17,17,09,14.50
2011,05,17,17,10,14.50
2011,05,17,17,11,14.50
2011,05,17,17,12,14.50
2011,05,17,17,13,14.50
2011,05,17,17,14,14.60
2011,05,17,17,15,14.60
2011,05,17,17,16,14.60
2011,05,17,17,17,14.60
2011,05,17,17,18,14.50
2011,05,17,17,19,14.50
2011,05,17,17,20,14.40
2011,05,17,17,21,14.40
2011,05,17,17,22,14.40
2011,05,17,17,23,14.50
2011,05,17,17,24,14.60
2011,05,17,17,25,14.70
2011,05,17,17,26,14.70
2011,05,17,17,27,14.60
2011,05,17,17,28,14.60
2011,05,17,17,29,14.50
2011,05,17,17,30,14.50
2011,05,17,17,31,14.40
2011,05,17,17,32,14.40
2011,05,17,17,33,14.30
2011,05,17,17,34,14.20
2011,05,17,17,35,14.20
2011,05,17,17,36,14.10
2011,05,17,17,37,14.10
2011,05,17,17,38,14.20
2011,05,17,17,39,14.20
2011,05,17,17,40,14.30
2011,05,17,17,41,14.30
2011,05,17,17,42,14.30
2011,05,17,17,43,14.30
2011,05,17,17,44,14.30
2011,05,17,17,45,14.30
2011,05,17,17,46,14.30
2011,05,17,17,47,14.20
2011,05,17,17,48,14.10
2011,05,17,17,49,14.10
2011,05,17,17,50,13.90
2011,05,17,17,51,13.90
2011,05,17,17,52,13.80
2011,05,17,17,54,13.80